sat.trackr.live / text

‹ back to catalog

STARLINK-31361

NORAD 58974 · 2024-031K

PAYLOAD ACTIVE UNKNOWN

§ Identity

Operator
Country
US
Launch date
2024-02-15
Launch site
AFWTR
Launch vehicle
Mass (kg)
RCS (m²)

Purposes: comms

External: N2YO · Heavens-Above · Gunter

§ Orbital elements

Epoch: 2026-09-20T07:35:24.611712Z

Period
93.85 min
Inclination
53.1587°
Eccentricity
0.0000828
Mean motion
15.34394514 rev/d
Perigee alt
462.2 km
Apogee alt
463.3 km
Semi-major
6,840.9 km
B*
3.1279e-5
RAAN
110.3846°
Arg perigee
115.4441°
Mean anomaly
244.6648°
Rev number
14,636

§ Raw data

STARLINK-313611 58974U 24031K   26263.31625708  .00000681  00000+0  31279-4 0  99942 58974  53.1587 110.3846 0000828 115.4441 244.6648 15.34394514146368

JSON: /api/v1/satellites/58974 · /tle

For live sub-satellite position, see the globe view (requires WebGL).

§ Visibility from observer

Set your observer location to see the next 7 days of passes ≥ 10°. The values pass through the URL so the page stays shareable.

No JS? Fill the form by hand. The geolocation button needs JavaScript.